Weather History for Caribou, ME

Change the Weather History Date:

Monday, January 21, 2013

  Actual Average Record
Temperature  
Mean Temperature 1 °F 9 °F  
Max Temperature 8 °F 19 °F 40 °F (1947)
Min Temperature -7 °F 0 °F -29 °F (1975)
Degree Days  
Heating Degree Days 64 56  
Month to date heating degree days 1072 1149  
Since 1 July heating degree days 4252 4743  
Cooling Degree Days 0 0  
Month to date cooling degree days 0 0  
Year to date cooling degree days 0 0  
Moisture  
Dew Point -11 °F    
Average Humidity 59    
Maximum Humidity 69    
Minimum Humidity 49    
Precipitation  
Precipitation 0.00 in 0.09 in 0.95 in (1979)
Month to date precipitation 1.46 1.86  
Year to date precipitation 1.46 1.86  
Snow  
Snow 0.00 in 0.80 in 10.40 in (1979)
Month to date snowfall 14.7 17.0  
Since 1 July snowfall 43.2 52.1  
Snow Depth 8.00 in    
Sea Level Pressure  
Sea Level Pressure 29.85 in    
Wind  
Wind Speed 9 mph (WSW)    
Max Wind Speed 18 mph    
Max Gust Speed 25 mph    
Visibility 10 miles    
Events      
T = Trace of Precipitation, MM = Missing Value Source: NWS Daily Summary

Daily Weather History Graph

Daily Weather History Graph

Search for Another Location

Airport:

Trip Planner

Search our weather history database for the weather conditions in past years. The results will help you decide how hot, cold, wet, or windy it might be!

Date:

Astronomy

Jan. 21, 2013 Rise Set
Actual Time 7:08 AM EST 4:19 PM EST
Civil Twilight 6:34 AM EST 4:52 PM EST
Nautical Twilight 5:57 AM EST 5:29 PM EST
Astronomical Twilight 5:21 AM EST 6:06 PM EST
Moon 11:55 AM EST (1/21) 2:33 AM EST (1/21)
Length of Visible Light 10h 18m
Length of Day
9h 10m
Waxing Gibbous, 75% of the Moon is Illuminated
Jan 21
Waxing Gibbous
Jan 26
Full
Feb 3
Last Quarter
Feb 10
New
Feb 17
First Quarter

Hourly Weather History & Observations

Time (EST) Temp. Windchill Dew Point Humidity Pressure Visibility Wind Dir Wind Speed Gust Speed Precip Events Conditions
12:54 AM 3.0 °F -12.5 °F -8.0 °F 60% 29.66 in 10.0 mi West 10.4 mph - N/A   Clear
1:54 AM 1.9 °F -14.7 °F -8.0 °F 63% 29.69 in 10.0 mi WSW 11.5 mph - N/A   Overcast
2:54 AM 1.9 °F -16.2 °F -9.0 °F 60% 29.70 in 10.0 mi WSW 13.8 mph 19.6 mph N/A   Partly Cloudy
3:54 AM -0.0 °F -15.3 °F -9.9 °F 63% 29.72 in 10.0 mi West 9.2 mph 17.3 mph N/A   Clear
4:54 AM -0.9 °F -17.4 °F -11.0 °F 62% 29.74 in 10.0 mi WSW 10.4 mph 21.9 mph N/A   Clear
5:54 AM -2.0 °F -21.2 °F -11.9 °F 63% 29.75 in 10.0 mi West 13.8 mph - N/A   Clear
6:54 AM -2.9 °F -21.6 °F -13.0 °F 62% 29.78 in 10.0 mi WSW 12.7 mph 20.7 mph N/A   Clear
7:54 AM -2.9 °F -19.8 °F -13.0 °F 62% 29.83 in 10.0 mi WSW 10.4 mph - N/A   Clear
8:54 AM -2.0 °F -18.7 °F -13.0 °F 60% 29.87 in 10.0 mi WSW 10.4 mph 19.6 mph N/A   Clear
9:54 AM -0.0 °F -20.1 °F -13.0 °F 54% 29.91 in 10.0 mi WSW 16.1 mph 21.9 mph N/A   Clear
10:54 AM 1.9 °F -13.8 °F -11.9 °F 52% 29.90 in 10.0 mi West 10.4 mph - N/A   Clear
11:54 AM 3.9 °F -13.7 °F -11.0 °F 50% 29.88 in 10.0 mi WSW 13.8 mph 20.7 mph N/A   Clear
12:54 PM 6.1 °F -10.2 °F -9.9 °F 48% 29.88 in 10.0 mi WSW 12.7 mph - N/A   Clear
1:54 PM 7.0 °F -9.8 °F -9.9 °F 46% 29.89 in 10.0 mi WSW 13.8 mph 18.4 mph N/A   Clear
2:54 PM 7.0 °F -7.5 °F -9.9 °F 46% 29.90 in 10.0 mi West 10.4 mph 24.2 mph N/A   Clear
3:54 PM 6.1 °F -7.8 °F -9.9 °F 48% 29.92 in 10.0 mi WSW 9.2 mph - N/A   Clear
4:54 PM 3.9 °F -11.3 °F -9.9 °F 53% 29.92 in 10.0 mi WSW 10.4 mph - N/A   Clear
6:54 PM -0.0 °F -7.9 °F -11.0 °F 60% 29.95 in 10.0 mi WSW 3.5 mph - N/A   Clear
7:54 PM -0.9 °F -11.0 °F -11.0 °F 62% 29.96 in 10.0 mi WSW 4.6 mph - N/A   Clear
8:54 PM -2.0 °F -12.2 °F -11.9 °F 63% 29.97 in 10.0 mi West 4.6 mph - N/A   Clear
9:54 PM -2.9 °F - -13.0 °F 62% 29.98 in 10.0 mi Calm Calm - N/A   Clear
10:54 PM -4.0 °F - -13.0 °F 65% 29.96 in 10.0 mi Calm Calm - N/A   Clear
11:54 PM -6.0 °F - -14.1 °F 68% 29.96 in 10.0 mi Calm Calm - N/A   Clear